OBJECT A, 65563

Orbit data source: Space-Track

You're viewing an Uncataloged Satellite

Recently launched and/or uncataloged satellites may have evolving metadata. Metadata may include but not limited to: Owner, Maufacturer, Bus, Motor, and Mission.

OBJECT A, 65563 is a satellite owned by PLA SSF (CN) that was launched on Mon, 08 Sep 2025 UTC via a CHANG ZHENG 7A launch vehicle from the Wenchang Satellite Launch Center (WSC). Unknown objects in Earth's orbit typically refer to objects detected orbiting the Earth but have not yet been identified or cataloged. These objects could be anything from previously untracked satellites, spent rocket stages, debris from satellite collisions, or even natural meteoroids temporarily captured by Earth's gravity.

Loading next visibility...
Identifier
65563, 2025-202A
Orbit
Active
Country
Flag of CNCN / PRC
Related business
None
Manufacturer
SAST
Mission
Operational spacecraft
Bus & Motor
FY-4?, LAE
Mass
~5,000 kg wet, ~2,500 kg dry
Launch date (UTC)
2025-09-08 (1 week ago)
Launch vehicle
CHANG ZHENG 7A
Launch site
Wenchang Satellite Launch Center (WSC)
Object type
Unknown
Shape & HBR
Unknown
Radar Cross Section
Large (>1 m²)

Expand to show TLE details & history
Last TLE update: 1 week ago

TLE from 1 week ago
0 OBJECT A
1 65563U 25202A   25252.65735740  .00038817  00000-0  40609-3 0  9998
2 65563  20.0005  35.8037 3556494 127.8642 269.9958  8.41043634    63
Epoch: 2025-09-09T15:46Z
TLE epoch observation values (Epoch: 2025-09-09T15:46:35.679Z)
Latitude
-0.00001°
Longitude
170.21002°
Altitude
5,030.907 km
Speed
5.555 km/s
True Right ascension
02h 23m 12s
True Declination
0° 00' 00"
Sunlit
Object was in daylight at epoch
Visualization orbit readout
Latitude
Unknown
Longitude
Unknown
Altitude
Unknown
Speed
Unknown
Apparent Right ascension
Unknown
Apparent Declination
Unknown
Sunlit
N/A
Visualization observer readout
Local Sidereal Time
12:32:35
Azimuth
Unknown
Elevation
Unknown
Doppler factor
Unknown
Orbital elements
Apogee altitude
7,474.177 km
Perigee altitude
205.975 km
Semi-major axis
10,218.213 km
Eccentricity
0.35565
Inclination
20.0005°
RAAN
35.8037°
Arg. of periapsis
127.8642°
True anomaly
232.16911°
Mean anomaly
269.9958°
Eccentric anomaly
250.75707°
Mean motion
2.10126 °/min
Orbital period
171.33 mins
BSTAR
0.00040609
Loading maneuver chart data...
Computing Atmospheric mass density...
Loading historical data...
Loading historical data...
Loading historical data...
Loading historical data...
Loading historical data...
Loading historical data...
Loading historical data...
Other satellites on launch #202 in the year 2025 (2025-09-08 UTC)

Documentation

Showing up to 5 results
|